Volver al catálogo

SMS 2

ActivoMeteoGEO
NORAD 7648·PAYLOAD·🇺🇸 United States

Lanzado Feb 6, 1975 desde Cape Canaveral Space Force Station

Loading…

TLE

ActualizadoSource: Space-Track

Época: Sep 14, 2026, 08:36 UTC

1 07648U 75011A   26257.35887839 -.00000211  00000-0  00000-0 0  9997
2 07648   5.2519 282.3873 0014711 283.1438 264.8346  0.99515332136566

Sigue SMS 2 en tiempo real con AllMySat

Download on the App Store